| time (UTC) | temp F | wind direction | speed MPH | gust MPH | rain 1hr in | rain 24hr in | rain mn in | humidity % | barometer mb |
| 20260504050437 | 49 | 223 | 0.0 | 0.0 | 0.00 | 0.00 | 0.00 | 32 | 1017.6 |
| 20260504045435 | 49 | 223 | 0.0 | 0.0 | 0.00 | 0.00 | 0.00 | 32 | 1017.6 |
| 20260504044935 | 49 | 223 | 0.0 | 0.0 | 0.00 | 0.00 | 0.00 | 32 | 1017.6 |
| 20260504044431 | 49 | 223 | 0.0 | 0.0 | 0.00 | 0.00 | 0.00 | 31 | 1017.6 |
| 20260504043931 | 50 | 223 | 0.0 | 0.0 | 0.00 | 0.00 | 0.00 | 30 | 1017.6 |
| 20260504043431 | 50 | 223 | 0.0 | 0.0 | 0.00 | 0.00 | 0.00 | 30 | 1017.6 |
| 20260504042427 | 50 | 223 | 0.0 | 0.0 | 0.00 | 0.00 | 0.00 | 30 | 1017.6 |
| 20260504041927 | 50 | 223 | 0.0 | 0.0 | 0.00 | 0.00 | 0.00 | 29 | 1017.6 |
| 20260504041425 | 50 | 223 | 0.0 | 0.0 | 0.00 | 0.00 | 0.00 | 29 | 1017.6 |
| 20260504035921 | 51 | 223 | 0.0 | 0.0 | 0.00 | 0.00 | 0.00 | 28 | 1017.6 |
| 20260504034921 | 51 | 223 | 0.0 | 0.0 | 0.00 | 0.00 | 0.00 | 27 | 1017.6 |
| 20260504033919 | 51 | 223 | 0.0 | 0.0 | 0.00 | 0.00 | 0.00 | 27 | 1017.6 |
| 20260504032914 | 51 | 223 | 0.0 | 0.0 | 0.00 | 0.00 | 0.00 | 27 | 1018.6 |
| 20260504032414 | 52 | 223 | 0.0 | 0.0 | 0.00 | 0.00 | 0.00 | 27 | 1018.6 |
| 20260504022406 | 54 | 223 | 0.0 | 0.0 | 0.00 | 0.00 | 0.00 | 23 | 1018.6 |
| 20260504021906 | 54 | 223 | 0.0 | 0.0 | 0.00 | 0.00 | 0.00 | 20 | 1018.6 |
| 20260504021402 | 54 | 223 | 0.0 | 0.0 | 0.00 | 0.00 | 0.00 | 20 | 1018.6 |
| 20260504020902 | 54 | 223 | 0.0 | 0.0 | 0.00 | 0.00 | 0.00 | 20 | 1018.6 |
| 20260504015400 | 55 | 223 | 0.0 | 0.0 | 0.00 | 0.00 | 0.00 | 20 | 1017.6 |
| 20260504014900 | 55 | 223 | 0.0 | 0.0 | 0.00 | 0.00 | 0.00 | 20 | 1017.6 |
| 20260504013858 | 56 | 223 | 0.0 | 0.0 | 0.00 | 0.00 | 0.00 | 20 | 1017.6 |
| 20260503182700 | 68 | 286 | 4.0 | 7.0 | 0.00 | 0.00 | 0.00 | 17 | 1021.6 |
| 20260503181658 | 68 | 155 | 3.0 | 6.0 | 0.00 | 0.00 | 0.00 | 17 | 1021.6 |
| 20260503180656 | 67 | 251 | 4.0 | 8.0 | 0.00 | 0.00 | 0.00 | 17 | 1021.6 |
| 20260503172636 | 67 | 331 | 5.0 | 6.0 | 0.00 | 0.00 | 0.00 | 17 | 1021.6 |
| 20260503171632 | 66 | 7 | 0.0 | 6.0 | 0.00 | 0.00 | 0.00 | 17 | 1022.6 |
| 20260503130944 | 51 | 22 | 0.0 | 3.0 | 0.00 | 0.00 | 0.00 | 41 | 1022.6 |
| 20260503130445 | 50 | 335 | 0.0 | 3.0 | 0.00 | 0.00 | 0.00 | 42 | 1022.6 |
| 20260503080807 | 44 | 335 | 0.0 | 0.0 | 0.00 | 0.00 | 0.00 | 34 | 1020.6 |
| 20260503080308 | 44 | 335 | 0.0 | 0.0 | 0.00 | 0.00 | 0.00 | 33 | 1020.6 |
| 20260503072759 | 45 | 335 | 0.0 | 0.0 | 0.00 | 0.00 | 0.00 | 31 | 1020.6 |
| 20260503072255 | 45 | 335 | 0.0 | 0.0 | 0.00 | 0.00 | 0.00 | 31 | 1020.6 |
| 20260503071755 | 45 | 335 | 0.0 | 0.0 | 0.00 | 0.00 | 0.00 | 31 | 1020.6 |
| 20260503071256 | 45 | 335 | 0.0 | 0.0 | 0.00 | 0.00 | 0.00 | 30 | 1020.6 |
| 20260503070751 | 46 | 335 | 0.0 | 0.0 | 0.00 | 0.00 | 0.00 | 29 | 1020.6 |
| 20260503070252 | 46 | 335 | 0.0 | 0.0 | 0.00 | 0.00 | 0.00 | 29 | 1020.6 |